This is the latest recevied weather packets stored in our database for station/object W8AN. If no packets are shown the sender has not sent any weather packets the latest 10 day(s).
| Time | Temp. | Humidity | Pressure | Rain* | Wind** | Luminosity | Snow |
|---|---|---|---|---|---|---|---|
| 1777994114 | 16.11° C | 72% | 4262.2 hPa | 0 mm | - | 40 W/m² | - |
| 1777993811 | 16.11° C | 72% | 4262.2 hPa | 0 mm | - | 50 W/m² | - |
| 1777993508 | 16.11° C | 72% | 4262.3 hPa | 0 mm | - | 88 W/m² | - |
| 1777993203 | 16.11° C | 71% | 4262.3 hPa | 0 mm | - | 196 W/m² | - |
| 1777992900 | 16.11° C | 72% | 4262.1 hPa | 0 mm | - | 180 W/m² | - |
| 1777992599 | 16.11° C | 72% | 4262.1 hPa | 0 mm | - | 130 W/m² | - |
| 1777992296 | 16.11° C | 72% | 4261.7 hPa | 0 mm | - | 125 W/m² | - |
| 1777991993 | 16.11° C | 72% | 4261.7 hPa | 0 mm | - | 95 W/m² | - |
| 1777991691 | 16.11° C | 72% | 4261.6 hPa | 0 mm | - | 92 W/m² | - |
| 1777991388 | 16.67° C | 71% | 4261.7 hPa | 0 mm | - | 81 W/m² | - |
| 1777991085 | 16.67° C | 71% | 4261.3 hPa | 0 mm | - | 164 W/m² | - |
| 1777990783 | 16.67° C | 70% | 4261 hPa | 0 mm | - | 232 W/m² | - |
| 1777990479 | 16.67° C | 71% | 4260.7 hPa | 0 mm | - | 460 W/m² | - |
| 1777989873 | 16.67° C | 71% | 4260.1 hPa | 0 mm | - | 486 W/m² | - |
| 1777989570 | 16.67° C | 71% | 4260.1 hPa | 0 mm | - | 458 W/m² | - |
| 1777989266 | 16.11° C | 71% | 4260.4 hPa | 0 mm | - | 445 W/m² | - |
| 1777988963 | 16.67° C | 72% | 4260.5 hPa | 0 mm | - | 459 W/m² | - |
| 1777988659 | 16.67° C | 72% | 4260.4 hPa | 0 mm | - | 434 W/m² | - |
| 1777988356 | 16.11° C | 71% | 4260.3 hPa | 0 mm | - | 477 W/m² | - |
| 1777988053 | 16.11° C | 71% | 4260.3 hPa | 0 mm | - | 224 W/m² | - |
| 1777987749 | 16.11° C | 71% | 4260.2 hPa | 0 mm | - | 223 W/m² | - |
| 1777987446 | 16.11° C | 73% | 4260.4 hPa | 0 mm | - | 203 W/m² | - |
| 1777987143 | 16.11° C | 72% | 4260.4 hPa | 0 mm | - | 180 W/m² | - |
| 1777986840 | 16.11° C | 72% | 4260.4 hPa | 0 mm | - | 171 W/m² | - |
| 1777986538 | 16.11° C | 72% | 4260.3 hPa | 0 mm | - | 255 W/m² | - |
* Rain latest hour (hover to see other rain measurements)
** Current wind speed in m/s (hover to see current wind gust speed)